Dillon, MT

3:43 PM MST on December 13, 2017 (GMT -0700)
Dillon

Weather History for KDLN - April, 2013

Change the Weather History Date:

Monday, April 29, 2013

  Actual Average Record
Temperature  
Mean Temperature 44 °F 46 °F  
Max Temperature 59 °F 59 °F 80 °F (1992)
Min Temperature 29 °F 32 °F 14 °F (2011)
Degree Days  
Heating Degree Days 21    
Month to date heating degree days 733  
Since 1 July heating degree days 7064  
Cooling Degree Days 0    
Month to date cooling degree days 0  
Year to date cooling degree days 0  
Moisture  
Dew Point 24 °F    
Average Humidity 42    
Maximum Humidity 58    
Minimum Humidity 25    
Precipitation  
Precipitation T in 0.04 in 0.37 in (2003)
Month to date precipitation 0.14 1.00  
Year to date precipitation 0.54 2.08  
Snow  
Snow 0.00 in - - ()
Snow Depth 0.00 in    
Sea Level Pressure  
Sea Level Pressure 29.67 in    
Wind  
Wind Speed 18 mph (WSW)    
Max Wind Speed 46 mph    
Max Gust Speed 55 mph    
Visibility 7 miles    
Events Rain    
T = Trace of Precipitation, MM = Missing Value Source: NWS Daily Summary

Daily Weather History Graph

Daily Weather History Graph

Search for Another Location

Airport or City:

Trip Planner

Search our weather history database for the weather conditions in past years. The results will help you decide how hot, cold, wet, or windy it might be!

Date:

Astronomy

Apr. 29, 2013 Rise Set
Actual Time 6:21 AM MDT 8:34 PM MDT
Civil Twilight 5:49 AM MDT 9:06 PM MDT
Nautical Twilight 5:09 AM MDT 9:47 PM MDT
Astronomical Twilight 4:24 AM MDT 10:31 PM MDT
Moon 12:12 AM MDT (4/29) 9:41 AM MDT (4/29)
Length of Visible Light 15h 17m
Length of Day
14h 12m
Waning Gibbous, 79% of the Moon is Illuminated
Apr 29
Waning Gibbous
May 2
Last Quarter
May 9
New
May 17
First Quarter
May 24
Full

Hourly Weather History & Observations

Time (MDT) Temp. Windchill Dew Point Humidity Pressure Visibility Wind Dir Wind Speed Gust Speed Precip Events Conditions
12:53 AM 44.1 °F 39.5 °F 21.0 °F 40% 29.81 in 10.0 mi South 8.1 mph - N/A   Clear
1:53 AM 43.0 °F 37.2 °F 21.0 °F 42% 29.78 in 10.0 mi SSW 10.4 mph - N/A   Clear
2:53 AM 43.0 °F 36.0 °F 19.9 °F 40% 29.76 in 10.0 mi SSW 13.8 mph 18.4 mph N/A   Clear
3:53 AM 43.0 °F 36.8 °F 16.0 °F 34% 29.73 in 10.0 mi SSW 11.5 mph - N/A   Clear
4:53 AM 46.0 °F 40.6 °F 15.1 °F 29% 29.69 in 10.0 mi South 11.5 mph - N/A   Mostly Cloudy
5:53 AM 44.1 °F 39.5 °F 15.1 °F 31% 29.68 in 10.0 mi South 8.1 mph - N/A   Partly Cloudy
6:53 AM 45.0 °F 38.5 °F 19.0 °F 36% 29.65 in 10.0 mi SW 13.8 mph - N/A   Clear
7:53 AM 51.1 °F - 24.1 °F 35% 29.64 in 10.0 mi SW 25.3 mph 28.8 mph N/A   Overcast
8:53 AM 50.0 °F - 30.0 °F 46% 29.65 in 10.0 mi WSW 27.6 mph 39.1 mph N/A   Clear
9:53 AM 53.1 °F - 28.9 °F 40% 29.61 in 10.0 mi SW 31.1 mph 39.1 mph N/A   Clear
10:53 AM 54.0 °F - 28.0 °F 37% 29.58 in 7.0 mi WSW 33.4 mph 46.0 mph N/A   Clear
11:53 AM 57.0 °F - 27.0 °F 32% 29.54 in 8.0 mi SW 31.1 mph 41.4 mph N/A   Partly Cloudy
12:53 PM 57.0 °F - 23.0 °F 27% 29.50 in 7.0 mi WSW 31.1 mph 43.7 mph N/A   Overcast
1:22 PM 57.2 °F - 21.2 °F 25% 29.59 in 1.8 mi SW 42.6 mph 50.6 mph N/A   Haze
1:30 PM 59.0 °F - 19.4 °F 22% 29.59 in 0.8 mi WSW 46.0 mph 55.2 mph N/A   Haze
1:36 PM 57.2 °F - 21.2 °F 25% 29.60 in 1.2 mi WSW 34.5 mph 55.2 mph N/A   Haze
1:41 PM 57.2 °F - 21.2 °F 25% 29.60 in 3.0 mi WSW 33.4 mph 48.3 mph N/A   Haze
1:53 PM 55.9 °F - 21.9 °F 27% 29.53 in 1.5 mi West 28.8 mph 46.0 mph N/A   Haze
2:05 PM 51.8 °F - 30.2 °F 44% 29.62 in 3.0 mi NW 26.5 mph 41.4 mph N/A   Haze
2:13 PM 48.2 °F - 33.8 °F 58% 29.63 in 6.0 mi NNW 28.8 mph 39.1 mph N/A   Haze
2:53 PM 48.9 °F - 32.0 °F 52% 29.61 in 10.0 mi NW 26.5 mph 35.7 mph 0.00 in   Mostly Cloudy
3:46 PM 46.4 °F 39.5 °F 33.8 °F 62% 29.67 in 10.0 mi West 17.3 mph 35.7 mph 0.00 in Rain Light Rain
3:53 PM 48.9 °F - 30.9 °F 50% 29.62 in 10.0 mi West 21.9 mph 28.8 mph 0.00 in   Scattered Clouds
4:13 PM 51.8 °F - 24.8 °F 35% 29.67 in 4.0 mi West 33.4 mph 44.9 mph N/A   Haze
4:34 PM 48.2 °F - 23.0 °F 37% 29.68 in 1.8 mi West 41.4 mph 48.3 mph N/A   Haze
4:40 PM 48.2 °F - 24.8 °F 40% 29.69 in 0.8 mi West 39.1 mph 48.3 mph N/A   Haze
4:48 PM 44.6 °F 34.1 °F 28.4 °F 53% 29.68 in 0.8 mi WNW 34.5 mph 51.8 mph N/A   Haze
4:51 PM 44.6 °F 34.6 °F 30.2 °F 57% 29.68 in 1.0 mi West 31.1 mph 51.8 mph N/A   Haze
4:53 PM 44.1 °F 34.4 °F 30.0 °F 58% 29.63 in 1.0 mi West 27.6 mph 51.8 mph N/A   Haze
4:55 PM 44.6 °F 35.7 °F 30.2 °F 57% 29.68 in 2.0 mi West 24.2 mph 46.0 mph N/A   Haze
5:02 PM 44.6 °F 35.5 °F 28.4 °F 53% 29.68 in 10.0 mi West 25.3 mph 33.4 mph N/A   Scattered Clouds
5:33 PM 42.8 °F 34.8 °F 30.2 °F 61% 29.72 in 6.0 mi NW 17.3 mph 25.3 mph N/A   Haze
5:42 PM 42.8 °F 34.8 °F 30.2 °F 61% 29.74 in 2.0 mi West 17.3 mph 27.6 mph 0.00 in Rain Light Rain
5:50 PM 41.0 °F 31.6 °F 28.4 °F 61% 29.73 in 5.0 mi West 20.7 mph 36.8 mph 0.00 in Rain Light Rain
5:53 PM 42.1 °F 32.3 °F 28.0 °F 58% 29.70 in 5.0 mi West 24.2 mph 36.8 mph 0.00 in   Haze
6:53 PM 46.0 °F 38.5 °F 25.0 °F 44% 29.68 in 10.0 mi WSW 19.6 mph - N/A   Mostly Cloudy
7:30 PM 44.6 °F 36.9 °F 19.4 °F 37% 29.74 in 10.0 mi West 18.4 mph - N/A   Scattered Clouds
7:53 PM 42.1 °F 34.2 °F 19.9 °F 41% 29.68 in 10.0 mi WSW 16.1 mph 23.0 mph N/A   Scattered Clouds
8:53 PM 37.9 °F 31.5 °F 21.0 °F 51% 29.72 in 10.0 mi WSW 9.2 mph - N/A   Partly Cloudy
9:53 PM 37.9 °F - 14.0 °F 38% 29.75 in 10.0 mi Calm Calm - N/A   Partly Cloudy
10:53 PM 36.0 °F 32.1 °F 12.0 °F 37% 29.77 in 10.0 mi East 4.6 mph - N/A   Partly Cloudy
11:53 PM 33.1 °F 30.0 °F 10.9 °F 40% 29.77 in 10.0 mi East 3.5 mph - N/A   Partly Cloudy